DW4153 Weather Reports


Display with metric or nautical units.
time (UTC)temp
F
wind
direction
speed
MPH
gust
MPH
rain 1hr
in
rain 24hr
in
rain mn
in
humidity
%
barometer
mb
20260506072026 49 25 0.0 3.0 0.00 0.12 0.00 69 1007.0
20260506062043 49 27 1.0 5.0 0.00 0.39 0.00 69 1006.9
20260506042039 47 124 0.0 3.0 0.00 0.94 0.00 71 1007.0
20260506035038 47 323 0.0 5.0 0.00 1.18 0.00 71 1007.1
20260506032034 46 68 0.0 4.0 0.00 1.18 0.00 72 1007.0
20260506025032 46 37 0.0 3.0 0.00 1.18 0.00 72 1007.4
20260506022026 46 354 0.0 1.0 0.00 1.18 0.00 72 1007.6
20260506005039 46 56 0.0 1.0 0.00 1.18 0.00 72 1008.0
20260506002036 46 34 0.0 0.0 0.00 1.18 0.00 72 1008.4
20260505235035 47 160 0.0 0.0 0.00 1.18 0.00 72 1008.5
20260505232034 47 144 0.0 0.0 0.00 1.18 0.00 71 1008.6
20260505225035 47 71 0.0 1.0 0.00 1.18 0.00 69 1008.6
20260505222034 47 47 0.0 2.0 0.00 1.18 0.00 69 1008.9
20260505215027 47 64 0.0 2.0 0.00 1.18 0.24 71 1009.0
20260505212025 47 46 0.0 1.0 0.00 1.18 0.24 71 1009.1
20260505205024 48 60 0.0 2.0 0.00 1.18 0.24 71 1009.1
20260505202045 48 14 0.0 0.0 0.00 1.18 0.24 71 1008.9
20260505195047 48 56 0.0 0.0 0.00 1.18 0.24 71 1008.7
20260505192035 49 63 0.0 0.0 0.00 1.18 0.24 73 1008.8
20260505185029 51 69 0.0 1.0 0.00 1.18 0.24 72 1008.8
20260505182027 54 53 0.0 2.0 0.00 1.18 0.24 68 1008.8
20260505175035 55 357 0.0 3.0 0.00 1.18 0.24 66 1009.0
20260505165127 55 246 0.0 0.0 0.00 1.18 0.24 69 1009.0
20260505162037 55 268 0.0 2.0 0.00 1.18 0.24 68 1009.1
20260505152032 56 288 0.0 4.0 0.00 1.18 0.24 66 1009.4
20260505122035 55 259 0.0 3.0 0.00 1.18 0.24 69 1009.9
20260505115040 54 60 0.0 3.0 0.00 1.18 0.24 59 1010.0
20260505112038 52 60 1.0 5.0 0.00 1.18 0.24 46 1010.2
20260505095033 49 352 0.0 2.0 0.00 1.18 0.24 25 1010.5
20260505092033 49 51 0.0 2.0 0.04 1.18 0.24 17 1010.4
20260505082036 49 111 0.0 2.0 0.04 1.14 0.23 7 1010.3